This demonstration page uses our WeatherBlox Daily Observations layout. Learn more.

39.08367, -84.50855

Hourly Observations for October 2, 2019

Temp ( °F °C ) Dew Point ( °F °C ) Humidity (%) Winds ( mph kmh ) Pressure ( in mb ) Visibility ( mi km ) Precip ( " mm )
12:53 am 00:53 Clear 69 20.6 67 19.4 93 93 Calm 29.96 1015 8 12.87472 0 0
1:53 am 01:53 Clear 69 20.6 67 19.4 93 93 Calm 29.96 1015 7 11.26538 0 0
2:53 am 02:53 Clear with Mist and Fog 66 18.9 65 18.3 96 96 Calm 29.96 1015 5 8.0467 0 0
3:53 am 03:53 Clear with Mist and Fog 65 18.3 65 18.3 100 100 Calm 29.96 1015 2.5 4.02335 0 0
4:06 am 04:06 Clear with Mist and Fog 65 18.3 65 18.3 100 100 Calm 29.97 1015 0.75 1.207005 0 0
4:18 am 04:18 Clear with Mist and Fog 66 18.9 65 18.3 96 96 Calm 29.96 1015 2 3.21868 0 0
4:26 am 04:26 Clear with Mist and Fog 65 18.3 65 18.3 100 100 Calm 29.96 1015 4 6.43736 0 0
4:53 am 04:53 Clear with Mist and Fog 65 18.3 65 18.3 100 100 Calm 29.96 1015 4 6.43736 0 0
5:08 am 05:08 Clear with Mist and Fog 65 18.3 65 18.3 100 100 Calm 29.97 1015 1.75 2.816345 0 0
5:38 am 05:38 Clear with Fog 64 17.8 64 17.8 100 100 Calm 29.97 1015 0.5 0.80467 0 0
5:47 am 05:47 Clear with Mist and Fog 64 18 64 18 100 100 Calm 29.97 1015 2.5 4.02335 0 0
5:53 am 05:53 Clear with Mist and Fog 64 17.8 64 17.8 100 100 Calm 29.96 1015 5 8.0467 0 0
6:53 am 06:53 Clear with Mist and Fog 67 19.4 66 18.9 97 97 Calm 29.97 1015 5 8.0467 0 0
7:53 am 07:53 Sunny 66 18.9 65 18.3 96 96 Calm 30 1016 7 11.26538 0 0
8:53 am 08:53 Sunny 70 21.1 68 20 93 93 Calm 30.01 1016 7 11.26538 0 0
9:53 am 09:53 Sunny 79 26.1 69 20.6 72 72 S 8 13 30 1016 10 16.0934 0 0
10:53 am 10:53 Sunny 84 28.9 66 18.9 55 55 WSW 10 17 29.98 1015 10 16.0934 0 0
11:23 am 11:23 Sunny 86 30 67 19.4 53 53 W 12 19 29.97 1015 10 16.0934 0 0
11:53 am 11:53 Sunny 88 31.1 67 19.4 50 50 WSW 9 15 29.98 1015 10 16.0934 0 0
12:53 pm 12:53 Mostly Sunny 91 32.8 66 18.9 44 44 WSW 10 17 29.96 1014 10 16.0934 0 0
1:53 pm 13:53 Mostly Sunny 93 33.9 63 17.2 37 37 W 13 20 29.93 1014 10 16.0934 0 0
2:53 pm 14:53 Sunny 94 34.4 63 17.2 36 36 WSW 14 22 29.91 1013 10 16.0934 0 0
3:53 pm 15:53 Mostly Sunny 95 35 62 16.7 34 34 W 14 22 29.89 1012 10 16.0934 0 0
4:53 pm 16:53 Sunny 93 33.9 60 15.6 33 33 WSW 16 26 29.88 1012 10 16.0934 0 0
5:53 pm 17:53 Mostly Sunny 92 33.3 60 15.6 34 34 W 16 26 29.88 1012 10 16.0934 0 0
6:53 pm 18:53 Sunny 89 31.7 60 15.6 38 38 W 9 15 29.9 1013 10 16.0934 0 0
7:53 pm 19:53 Clear 87 30.6 61 16.1 42 42 W 6 9 29.91 1013 10 16.0934 0 0
8:53 pm 20:53 Clear 79 26.1 65 18.3 62 62 Calm 29.93 1013 10 16.0934 0 0
9:53 pm 21:53 Clear 73 22.8 66 18.9 79 79 SSW 3 6 29.93 1014 10 16.0934 0 0
10:53 pm 22:53 Clear 71 21.7 67 19.4 87 87 S 3 6 29.93 1014 10 16.0934 0 0
11:53 pm 23:53 Clear 69 20.6 66 18.9 90 90 Calm 29.93 1014 10 16.0934 0 0

Powered by AerisWeather